Location: Dana
(41.8364°N, 106.7042°W)
Time: 11:26:39
(UTC+00:00)

Injun/Solrad 3 - Pass Details

Date: 12 May 2026
Orbit: 867 x 989 km, 66.8° (Epoch: 11 June)

Event Time Altitude Azimuth Distance (km) Brightness Sun altitude
Rises 10:16:57 0° 309° (NW) 3,696 10.9 -15.1°
Reaches altitude 10° 10:21:30 10° 280° (W) 2,749 10.0 -14.5°
Enters shadow 10:22:55 12° 267° (W) 2,632 9.8 -14.3°
Maximum altitude 10:23:38 12° 260° (W) 2,616 - -14.2°
Drops below altitude 10° 10:25:46 10° 240° (WSW) 2,742 - -13.9°
Sets 10:30:19 0° 211° (SSW) 3,675 - -13.3°
